THURAYA-4

Last updated on Sun Dec 14 2025 00:02:54 GMT+0000 (Coordinated Universal Time)

1 62483U 25001A 25347.20044742 .00000153 00000+0 00000+0 0 9992 2 62483 0.0211 61.1663 0000405 324.5404 172.8953 1.00269857 2312
UTC large
Height (km)
Speed (km/s)
/
Latitude / Longitude
Inclination (degrees)
Orbital Period (minutes)
Azimuth
Elevation
Range (km)
Doppler Factor

Next 0 passes for location: London (51.5072 / 0.1276)

Sorry there are no passes over London.